Location: Gleizolles
(44.4833°N, 6.7667°E)
Time: 15:23:34
(UTC+00:00)

Vanguard 1 - Pass Details

Date: 04 July 2024
Orbit: 650 x 3826 km, 34.3° (Epoch: 22 July)

Event Time Altitude Azimuth Distance (km) Brightness Sun altitude
Rises 04:50:29 0° 199° (SSW) 7,934 14.3 7.9°
Reaches altitude 10° 04:58:14 10° 187° (S) 6,716 14.1 9.2°
Maximum altitude 05:11:52 22° 146° (SSE) 4,985 13.9 11.5°
Drops below altitude 10° 05:22:08 10° 104° (ESE) 4,987 14.8 13.2°
Sets 05:26:32 0° 90° (E) 5,505 15.4 13.9°
